User: anonymous   Login
Location: Cincinnati Observatory Center
(39.1389°N, 84.4225°W)
Time: 06:09:02
(UTC-05:00)
Language:

JAS-1B - Orbit

View from above orbital plane
View from above orbital plane
View from above satellite
View from above satellite

Ground track
Ground track

The orbit data is extracted from the following two-line orbital elements,

1 20480U 90013C   14329.10406377 -.00000018  00000-0  36308-4 0  9088
2 20480 099.0675 262.1167 0540225 349.4880 073.0826 12.83400066161779
Epoch (UTC): 25 November 2014 02:29:51
Eccentricity: 0.0540225
inclination: 99.0675°
perigee height: 911 km
apogee height: 1744 km
right ascension of ascending node: 262.1167°
argument of perigee: 349.4880°
revolutions per day: 12.83400066
mean anomaly at epoch: 73.0826°
orbit number at epoch: 16177

The dashed part of the orbit path shows where the satellite is in the earth's shadow,  

DLR